Regional Weather Roundup
Issued by NWS

Home | Current Version | Previous Version | Graphics & Text | Print | Product List | Glossary Off
Versions: 1 2 3 4 5 6 7 8 9 10 11 12 13 14 15 16 17 18 19 20 21 22 23 24 25 26 27 28 29 30 31 32 33 34 35 36 37 38 39 40 41 42 43 44 45 46 47 48 49 50

000
ASUS43 KFSD 050010
RWRSD

WEATHER ROUNDUP FOR SOUTH DAKOTA
NATIONAL WEATHER SERVICE SIOUX FALLS SD
600 PM CST WED MAR 04 2015

NOTE: "FAIR" INDICATES FEW OR NO CLOUDS BELOW 12,000 FEET WITH NO
SIGNIFICANT WEATHER AND/OR OBSTRUCTIONS TO VISIBILITY.


SDZ001>005-009-010-012>017-050100-
NORTHWEST AND NORTH CENTRAL SOUTH DAKOTA

CITY           SKY/WX    TMP DP  RH WIND       PRES   REMARKS
BUFFALO          N/A     15  -5  40 NW15      30.12S WCI   0
FAITH            N/A     14  -7  38 NW12G21   30.23S WCI   0
MOBRIDGE       CLEAR     10  -7  46 N8        30.30R WCI  -2
$$

SDZ012>016-024>037-041>051-057-063-072>074-050100-
SOUTHWEST AND SOUTH CENTRAL SOUTH DAKOTA

CITY           SKY/WX    TMP DP  RH WIND       PRES   REMARKS
RAPID CTY ARPT CLEAR     15  -1  49 N17       30.20S WCI  -1
PIERRE         CLEAR     13  -6  42 N12       30.32R WCI  -1
CUSTER         CLEAR     11 -11  36 W12       30.01R WCI  -3
ELLSWORTH AFB  CLEAR     16  -3  44 N14       30.18S WCI   1
PHILIP         CLEAR     16   0  49 N14       30.28S WCI   2
PINE RIDGE     CLEAR     17   4  56 NE8       30.19R WCI   7
SPEARFISH      FAIR      10  -4  52 MISG      30.15S
WINNER         FAIR      13  -3  49 N10       30.31R WCI   0
$$

SDZ004>011-016>023-039-040-050100-
NORTHEAST SOUTH DAKOTA

CITY           SKY/WX    TMP DP  RH WIND       PRES   REMARKS
ABERDEEN       CLEAR      2 -12  52 N13       30.39R WCI -15
WATERTOWN      CLEAR     -1 -12  59 NW16      30.30S WCI -21
$$

SDZ017-020-022-023-036>040-048>070-050100-
SOUTHEAST SOUTH DAKOTA

CITY           SKY/WX    TMP DP  RH WIND       PRES   REMARKS
SIOUX FALLS    PTCLDY     5  -6  60 NW14      30.35R WCI -12
HURON          CLEAR      6  -6  57 N13       30.38R WCI -10
CHAMBERLAIN    CLEAR     10  -5  50 N9        30.34R WCI  -2
MITCHELL       CLEAR      9  -4  55 N12       30.39R WCI  -6
YANKTON        CLEAR     10  -2  56 N14       30.38R WCI  -5
$$

ABBREVIATIONS USED IN REMARKS
   TC - TEMPERATURE IN CELSIUS
  WCI - WIND CHILL INDEX
   HX - HEAT INDEX
  VSB - VISIBILITY



USA.gov is the U.S. government's official web portal to all federal, state and local government web resources and services.